Location: Newark
(45.4422°N, 16.2769°E)
Time: 05:47:50
(UTC+00:00)

Vanguard 2 - Pass Details

Date: 17 December 2019
Orbit: 553 x 2938 km, 32.9° (Epoch: 23 January)

Event Time Altitude Azimuth Distance (km) Brightness Sun altitude
Rises 21:29:33 0° 217° (SW) 4,601 - -62.4°
Reaches altitude 10° 21:32:38 10° 207° (SSW) 3,934 - -62.8°
Maximum altitude 21:42:04 33° 148° (SSE) 3,281 - -63.9°
Drops below altitude 10° 21:55:15 10° 94° (E) 5,552 - -65.2°
Sets 22:00:36 0° 87° (E) 6,730 - -65.7°
